Weather History for KLWD - June, 2012

Change the Weather History Date:

Saturday, June 2, 2012

  Actual Average Record
Temperature  
Mean Temperature 65 °F 67 °F  
Max Temperature 78 °F 77 °F 88 °F (2002)
Min Temperature 52 °F 57 °F 43 °F (1969)
Degree Days  
Heating Degree Days 0 2  
Month to date heating degree days 10 4  
Since 1 June heating degree days 10 4  
Since 1 July heating degree days 4829 6064  
Cooling Degree Days 0 4  
Month to date cooling degree days 0 7  
Year to date cooling degree days 157 61  
Since 1 June cooling degree days 0 7  
Growing Degree Days 16 (Base 50)    
Moisture  
Dew Point 48 °F    
Average Humidity 55    
Maximum Humidity 77    
Minimum Humidity 32    
Precipitation  
Precipitation 0.00 in 0.19 in 2.32 in (1980)
Month to date precipitation 0.00 0.38  
Year to date precipitation 13.37  
Sea Level Pressure  
Sea Level Pressure 29.84 in    
Wind  
Wind Speed 10 mph (West)    
Max Wind Speed 23 mph    
Max Gust Speed 31 mph    
Visibility 10 miles    
Events      
T = Trace of Precipitation, MM = Missing Value Source: NWS Daily Summary

Daily Weather History Graph

Daily Weather History Graph

Search for Another Location

Airport or City:

Trip Planner

Search our weather history database for the weather conditions in past years. The results will help you decide how hot, cold, wet, or windy it might be!

Date:

Astronomy

Jun. 02, 2012 Rise Set
Actual Time 5:46 AM CDT 8:41 PM CDT
Civil Twilight 5:13 AM CDT 9:14 PM CDT
Nautical Twilight 4:32 AM CDT 9:55 PM CDT
Astronomical Twilight 3:44 AM CDT 10:43 PM CDT
Moon 6:57 PM CDT 4:05 AM CDT
Length of Visible Light 16h 00m
Length of Day
14h 55m
Waxing Gibbous, 95% of the Moon is Illuminated
Jun 2
Waxing Gibbous
Jun 4
Full
Jun 11
Last Quarter
Jun 19
New
Jun 26
First Quarter

Hourly Weather History & Observations

Time (CDT) Temp. Dew Point Humidity Pressure Visibility Wind Dir Wind Speed Gust Speed Precip Events Conditions
12:53 AM 59.0 °F 46.9 °F 64% 29.87 in 10.0 mi West 11.5 mph - N/A   Overcast
1:53 AM 57.0 °F 48.0 °F 72% 29.88 in 10.0 mi WSW 6.9 mph - N/A   Overcast
2:53 AM 57.0 °F 46.9 °F 69% 29.87 in 10.0 mi WSW 9.2 mph - N/A   Overcast
3:53 AM 55.9 °F 46.0 °F 69% 29.86 in 10.0 mi WSW 9.2 mph - N/A   Overcast
4:53 AM 55.0 °F 45.0 °F 69% 29.84 in 10.0 mi SW 9.2 mph - N/A   Overcast
5:53 AM 53.1 °F 45.0 °F 74% 29.84 in 10.0 mi SW 8.1 mph - N/A   Scattered Clouds
6:53 AM 53.1 °F 46.0 °F 77% 29.85 in 10.0 mi WSW 10.4 mph - N/A   Clear
7:53 AM 55.9 °F 48.0 °F 75% 29.85 in 10.0 mi West 11.5 mph - 0.01 in   Clear
8:53 AM 60.1 °F 50.0 °F 69% 29.86 in 10.0 mi West 13.8 mph - 0.02 in   Clear
9:53 AM 64.9 °F 53.1 °F 65% 29.86 in 10.0 mi West 10.4 mph - 0.02 in   Clear
10:53 AM 69.1 °F 53.1 °F 57% 29.85 in 10.0 mi WNW 12.7 mph - 0.02 in   Clear
11:53 AM 72.0 °F 52.0 °F 49% 29.84 in 10.0 mi WNW 16.1 mph 23.0 mph 0.01 in   Clear
2:53 PM 77.0 °F 48.9 °F 37% 29.82 in 10.0 mi NNW 13.8 mph 24.2 mph N/A   Scattered Clouds
3:53 PM 77.0 °F 46.0 °F 33% 29.82 in 10.0 mi NW 19.6 mph 25.3 mph N/A   Partly Cloudy
4:53 PM 78.1 °F 46.0 °F 32% 29.81 in 10.0 mi NW 12.7 mph 20.7 mph N/A   Partly Cloudy
5:53 PM 77.0 °F 46.0 °F 33% 29.81 in 10.0 mi NW 13.8 mph - N/A   Clear
6:53 PM 75.9 °F 46.0 °F 35% 29.81 in 10.0 mi NW 8.1 mph - N/A   Clear
7:53 PM 72.0 °F 50.0 °F 46% 29.82 in 10.0 mi North 4.6 mph - N/A   Clear
8:53 PM 69.1 °F 48.0 °F 47% 29.83 in 10.0 mi Calm Calm - N/A   Clear
9:53 PM 66.0 °F 48.9 °F 54% 29.84 in 10.0 mi East 3.5 mph - N/A   Clear
10:53 PM 66.9 °F 48.0 °F 51% 29.86 in 10.0 mi Calm Calm - N/A   Clear
11:53 PM 64.9 °F 48.0 °F 54% 29.87 in 10.0 mi SSE 4.6 mph - N/A   Clear